EW0407 Weather Reports


Display with metric or nautical units.
time (UTC)temp
F
wind
direction
speed
MPH
gust
MPH
rain 1hr
in
rain 24hr
in
rain mn
in
humidity
%
barometer
mb
20260504100253 61 21 8.0 16.0 0.00 0.00 0.00 38 1023.4
20260504081614 58 283 7.0 11.0 0.00 0.00 0.00 47 1023.7
20260504080450 59 0 7.0 11.0 0.00 0.00 0.00 47 1023.6
20260504050412 52 310 2.0 3.0 0.00 0.03 0.00 68 1023.3
20260504045333 51 12 1.0 6.0 0.00 0.03 0.00 70 1023.0
20260504044357 51 36 1.0 3.0 0.00 0.05 0.00 71 1022.9
20260504043317 50 0.0 0.0 0.00 0.06 0.00 72 1023.0
20260504042341 50 4 0.0 3.0 0.00 0.10 0.00 73 1023.1
20260504041405 49 344 3.0 5.0 0.00 0.16 0.00 73 1023.1
20260504040324 49 357 3.0 5.0 0.00 0.17 0.00 73 1023.3
20260504035201 49 6 1.0 3.0 0.00 0.18 0.00 73 1022.9
20260504034204 49 12 1.0 2.0 0.00 0.18 0.00 73 1023.0
20260504033125 48 6 1.0 3.0 0.00 0.18 0.00 73 1022.7
20260504031941 49 358 2.0 5.0 0.00 0.18 0.00 72 1022.9
20260504031005 49 2 2.0 5.0 0.00 0.18 0.00 72 1022.8
20260504025925 48 33 2.0 5.0 0.00 0.18 0.00 72 1022.8
20260504024741 49 4 4.0 5.0 0.00 0.18 0.00 71 1022.9
20260504023805 49 6 5.0 6.0 0.00 0.18 0.00 71 1022.9
20260504022725 48 0 2.0 6.0 0.00 0.18 0.00 73 1022.8
20260504021645 46 0.0 0.0 0.00 0.18 0.00 78 1022.9
20260504020708 45 337 1.0 2.0 0.00 0.18 0.00 79 1023.0
20260504015629 44 0.0 0.0 0.00 0.18 0.00 81 1023.2
20260504014653 44 0.0 1.0 0.00 0.18 0.00 80 1023.2
20260504013613 44 0.0 0.0 0.00 0.18 0.00 79 1023.1
20260504012429 45 0.0 1.0 0.00 0.18 0.00 78 1023.1
20260504011452 45 338 0.0 2.0 0.00 0.18 0.00 77 1023.2
20260504010413 45 53 0.0 1.0 0.00 0.18 0.00 77 1023.1
20260504005229 45 78 2.0 2.0 0.00 0.18 0.00 78 1022.8
20260504004313 45 80 0.0 2.0 0.00 0.18 0.00 77 1022.9
20260504003233 45 0.0 0.0 0.00 0.18 0.00 76 1023.1
20260504002028 46 88 0.0 2.0 0.00 0.18 0.00 75 1022.9
20260504001053 46 0.0 0.0 0.00 0.18 0.00 75 1023.0
20260504000013 46 0.0 0.0 0.00 0.18 0.00 77 1022.8
20260503234829 46 0.0 0.0 0.00 0.18 0.00 77 1022.9
20260503233853 45 0.0 1.0 0.00 0.18 0.00 77 1022.9
20260503232813 46 0.0 1.0 0.00 0.18 0.00 77 1022.9
20260503231629 46 0.0 0.0 0.00 0.18 0.00 76 1023.1
20260503230653 46 86 1.0 2.0 0.00 0.18 0.00 75 1022.9
20260503225633 46 85 0.0 1.0 0.00 0.18 0.00 75 1022.9
20260503224449 47 0.0 1.0 0.00 0.18 0.00 73 1022.9
20260503223513 48 0.0 1.0 0.00 0.18 0.00 71 1023.0
20260503222413 48 239 0.0 2.0 0.00 0.18 0.00 70 1022.8
20260503221228 48 280 1.0 2.0 0.00 0.18 0.00 69 1022.9
20260503220253 49 0.0 1.0 0.00 0.18 0.00 68 1023.0
20260503215212 49 226 2.0 2.0 0.00 0.18 0.00 67 1022.9
20260503214049 49 269 1.0 3.0 0.00 0.18 0.00 68 1022.8
20260503213053 49 311 3.0 5.0 0.00 0.20 0.00 68 1022.7
20260503212013 49 292 3.0 3.0 0.00 0.20 0.00 68 1022.8
20260503211037 49 300 2.0 5.0 0.00 0.20 0.00 67 1022.8
20260503210101 49 341 1.0 2.0 0.00 0.20 0.00 66 1022.9
20260503205029 49 281 6.0 8.0 0.00 0.20 0.20 66 1023.0
20260503204053 50 285 5.0 7.0 0.00 0.20 0.20 65 1023.0
20260503203033 50 268 5.0 8.0 0.00 0.20 0.20 65 1023.1
20260503201849 50 279 4.0 8.0 0.00 0.20 0.20 64 1022.8
20260503200852 50 292 2.0 5.0 0.00 0.20 0.20 65 1023.0
20260503195833 50 297 6.0 7.0 0.00 0.20 0.20 65 1023.0
20260503194629 50 299 5.0 7.0 0.00 0.20 0.20 65 1023.1
20260503193653 50 300 3.0 6.0 0.00 0.20 0.20 65 1022.8
20260503192613 50 285 3.0 3.0 0.00 0.20 0.20 65 1022.8
20260503191429 50 304 3.0 8.0 0.00 0.20 0.20 65 1022.8
20260503190453 50 285 5.0 8.0 0.00 0.20 0.20 66 1022.6
20260503185413 50 328 2.0 5.0 0.00 0.20 0.20 66 1022.4
20260503184229 50 273 4.0 5.0 0.00 0.20 0.20 67 1022.4
20260503183253 50 312 3.0 3.0 0.00 0.20 0.20 67 1022.2
20260503182253 50 300 2.0 5.0 0.00 0.20 0.20 67 1022.0
20260503181109 50 298 3.0 5.0 0.00 0.20 0.20 67 1021.9
20260503180133 50 301 5.0 6.0 0.00 0.20 0.20 67 1021.6
20260503175013 51 293 6.0 8.0 0.00 0.20 0.20 66 1021.3
20260503173829 51 292 6.0 8.0 0.00 0.20 0.20 66 1021.6
20260503172853 51 324 9.0 11.0 0.00 0.20 0.20 65 1021.2
20260503171813 51 335 6.0 10.0 0.00 0.20 0.20 63 1021.4
20260503170629 52 334 7.0 13.0 0.00 0.20 0.20 60 1021.1
20260503151013 54 314 10.0 13.0 0.00 0.20 0.20 52 1020.3
20260503131253 55 21 4.0 16.0 0.00 0.20 0.20 61 1020.2
20260503130213 54 337 15.0 20.0 0.00 0.20 0.20 60 1020.2
20260503110453 52 0 12.0 16.0 0.00 0.20 0.20 66 1020.7